Location: Lac de la Montagne noire
(46.1952°N, 74.2701°W)
Time: 16:53:25
(UTC-04:00)

Envisat - Pass Details

Date: 20 March 2019
Orbit: 764 x 766 km, 98.1° (Epoch: 19 October)

Event Time Altitude Azimuth Distance (km) Brightness Sun altitude
Rises 20:53:01 0° 212° (SSW) 3,217 6.4 -18.4°
Reaches altitude 10° 20:56:12 10° 233° (SW) 2,297 5.9 -18.9°
Maximum altitude 20:59:17 16° 271° (W) 1,911 6.0 -19.4°
Drops below altitude 10° 21:02:24 10° 309° (NW) 2,308 6.6 -19.9°
Sets 21:05:38 0° 331° (NNW) 3,241 7.1 -20.4°
